START_TIME,STEP,MOV.,M34,t_acc.,L5,t_acc.,L18,t_acc.,L14,t_acc.
1979-07-12 06:00:25.100 ,0,1,3.,12.0,0.,12.0,0.,12.0,0.,12.0
1979-07-12 06:00:37.100 ,0,1,1.,12.0,0.,12.0,0.,12.0,0.,12.0
1979-07-12 06:00:49.100 ,3,1,0.,12.0,0.,12.0,0.,12.0,0.,12.0
1979-07-12 06:01:01.100 ,3,1,2.,12.0,0.,12.0,0.,12.0,0.,12.0
1979-07-12 06:01:13.100 ,7,1,1.,12.0,0.,12.0,0.,12.0,0.,12.0
1979-07-12 06:01:25.100 ,7,1,2.,12.0,0.,12.0,0.,12.0,0.,12.0
1979-07-12 06:01:37.100 ,4,1,0.,12.0,0.,12.0,0.,12.0,0.,12.0
1979-07-12 06:01:49.100 ,4,1,4.,12.0,0.,12.0,0.,12.0,0.,12.0
1979-07-12 06:02:01.100 ,0,1,3.,12.0,0.,12.0,0.,12.0,0.,12.0
1979-07-12 06:02:13.100 ,0,1,1.,12.0,0.,12.0,0.,12.0,1.,12.0
1979-07-12 06:02:25.100 ,3,1,2.,12.0,0.,12.0,0.,12.0,0.,12.0
1979-07-12 06:02:37.100 ,3,1,2.,12.0,0.,12.0,0.,12.0,0.,12.0
1979-07-12 06:02:49.100 ,7,1,0.,12.0,0.,12.0,0.,12.0,0.,12.0
1979-07-12 06:03:01.100 ,7,1,3.,12.0,0.,12.0,0.,12.0,0.,12.0
1979-07-12 06:03:13.100 ,4,1,0.,12.0,0.,12.0,0.,12.0,0.,12.0
1979-07-12 06:03:25.100 ,4,1,3.,12.0,0.,12.0,0.,12.0,0.,12.0
1979-07-12 06:03:37.100 ,0,1,2.,12.0,0.,12.0,0.,12.0,0.,12.0
1979-07-12 06:03:49.100 ,0,1,3.,12.0,0.,12.0,0.,12.0,0.,12.0
1979-07-12 06:04:01.100 ,3,1,1.,12.0,0.,12.0,0.,12.0,0.,12.0
1979-07-12 06:04:13.100 ,3,1,1.,12.0,0.,12.0,0.,12.0,0.,12.0
1979-07-12 06:04:25.100 ,7,1,2.,12.0,0.,12.0,0.,12.0,0.,12.0
1979-07-12 06:04:37.100 ,7,1,4.,12.0,0.,12.0,0.,12.0,0.,12.0
1979-07-12 06:04:49.100 ,4,1,2.,12.0,0.,12.0,0.,12.0,0.,12.0
1979-07-12 06:05:01.100 ,4,1,6.,12.0,0.,12.0,0.,12.0,0.,12.0
1979-07-12 06:05:13.100 ,0,1,2.,12.0,0.,12.0,0.,12.0,0.,12.0
1979-07-12 06:05:25.100 ,0,1,5.,12.0,0.,12.0,0.,12.0,0.,12.0
1979-07-12 06:05:37.100 ,0,0,3.,12.0,0.,12.0,0.,12.0,0.,12.0
1979-07-12 06:05:49.100 ,0,0,1.,12.0,0.,12.0,0.,12.0,0.,12.0
1979-07-12 06:06:01.100 ,0,0,4.,12.0,0.,12.0,0.,12.0,1.,12.0
1979-07-12 06:06:13.100 ,0,0,5.,12.0,0.,12.0,0.,12.0,0.,12.0
1979-07-12 06:06:25.100 ,5,1,0.,12.0,0.,12.0,0.,12.0,0.,12.0
1979-07-12 06:06:37.100 ,5,1,1.,12.0,0.,12.0,0.,12.0,0.,12.0
1979-07-12 06:06:49.100 ,5,0,4.,12.0,0.,12.0,0.,12.0,1.,12.0
1979-07-12 06:07:01.100 ,5,0,4.,12.0,0.,12.0,0.,12.0,0.,12.0
1979-07-12 06:07:13.100 ,4,1,8.,12.0,0.,12.0,0.,12.0,0.,12.0
1979-07-12 06:07:25.100 ,4,1,3.,12.0,0.,12.0,0.,12.0,0.,12.0
1979-07-12 06:07:37.100 ,4,0,3.,12.0,0.,12.0,0.,12.0,0.,12.0
1979-07-12 06:07:49.100 ,4,0,4.,12.0,0.,12.0,0.,12.0,0.,12.0
1979-07-12 06:08:01.100 ,3,1,1.,12.0,0.,12.0,0.,12.0,0.,12.0
1979-07-12 06:08:13.100 ,3,1,1.,12.0,0.,12.0,0.,12.0,0.,12.0
1979-07-12 06:08:25.100 ,3,0,4.,12.0,0.,12.0,0.,12.0,0.,12.0
1979-07-12 06:08:37.100 ,3,0,3.,12.0,0.,12.0,0.,12.0,0.,12.0
1979-07-12 06:08:49.100 ,2,1,3.,12.0,0.,12.0,0.,12.0,0.,12.0
1979-07-12 06:09:01.100 ,2,1,10.,12.0,0.,12.0,0.,12.0,0.,12.0
1979-07-12 06:09:13.100 ,2,0,2.,12.0,0.,12.0,0.,12.0,1.,12.0
1979-07-12 06:09:25.100 ,2,0,3.,12.0,0.,12.0,0.,12.0,0.,12.0
1979-07-12 06:09:37.100 ,1,1,3.,12.0,0.,12.0,0.,12.0,0.,12.0
1979-07-12 06:09:49.100 ,1,1,5.,12.0,0.,12.0,0.,12.0,0.,12.0
1979-07-12 06:10:01.100 ,1,0,1.,12.0,0.,12.0,0.,12.0,0.,12.0
1979-07-12 06:10:13.100 ,1,0,4.,12.0,0.,12.0,0.,12.0,0.,12.0
1979-07-12 06:10:25.100 ,0,1,3.,12.0,0.,12.0,0.,12.0,0.,12.0
1979-07-12 06:10:37.100 ,0,1,2.,12.0,0.,12.0,0.,12.0,0.,12.0
1979-07-12 06:10:49.100 ,0,0,1.,12.0,0.,12.0,0.,12.0,0.,12.0
1979-07-12 06:11:01.100 ,0,0,5.,12.0,0.,12.0,0.,12.0,1.,12.0
1979-07-12 06:11:13.100 ,0,1,2.,12.0,0.,12.0,0.,12.0,0.,12.0
1979-07-12 06:11:25.100 ,0,1,6.,12.0,0.,12.0,0.,12.0,0.,12.0
1979-07-12 06:11:37.100 ,0,0,1.,12.0,0.,12.0,0.,12.0,0.,12.0
1979-07-12 06:11:49.100 ,0,0,1.,12.0,0.,12.0,0.,12.0,1.,12.0
1979-07-12 06:12:01.100 ,1,1,3.,12.0,0.,12.0,0.,12.0,0.,12.0
1979-07-12 06:12:13.100 ,1,1,1.,12.0,0.,12.0,0.,12.0,0.,12.0
1979-07-12 06:12:25.100 ,1,0,4.,12.0,0.,12.0,0.,12.0,0.,12.0
1979-07-12 06:12:37.100 ,1,0,1.,12.0,0.,12.0,0.,12.0,0.,12.0
1979-07-12 06:12:49.100 ,2,1,2.,12.0,0.,12.0,0.,12.0,0.,12.0
1979-07-12 06:13:01.100 ,2,1,1.,12.0,0.,12.0,0.,12.0,0.,12.0
1979-07-12 06:13:13.100 ,2,0,5.,12.0,0.,12.0,0.,12.0,0.,12.0
1979-07-12 06:13:25.100 ,2,0,6.,12.0,0.,12.0,0.,12.0,0.,12.0
1979-07-12 06:13:37.100 ,3,1,4.,12.0,0.,12.0,0.,12.0,1.,12.0
1979-07-12 06:13:49.100 ,3,1,2.,12.0,0.,12.0,0.,12.0,0.,12.0
1979-07-12 06:14:01.100 ,3,0,7.,12.0,0.,12.0,0.,12.0,0.,12.0
1979-07-12 06:14:13.100 ,3,0,5.,12.0,0.,12.0,0.,12.0,0.,12.0
1979-07-12 06:14:25.100 ,4,1,1.,12.0,0.,12.0,0.,12.0,0.,12.0
1979-07-12 06:14:37.100 ,4,1,1.,12.0,0.,12.0,0.,12.0,1.,12.0
1979-07-12 06:14:49.100 ,4,0,4.,12.0,0.,12.0,0.,12.0,0.,12.0
1979-07-12 06:15:01.100 ,4,0,7.,12.0,0.,12.0,0.,12.0,0.,12.0
1979-07-12 06:15:13.100 ,5,1,6.,12.0,0.,12.0,0.,12.0,0.,12.0
1979-07-12 06:15:25.100 ,5,1,3.,12.0,0.,12.0,0.,12.0,0.,12.0
1979-07-12 06:15:37.100 ,5,0,7.,12.0,0.,12.0,0.,12.0,0.,12.0
1979-07-12 06:15:49.100 ,5,0,7.,12.0,0.,12.0,0.,12.0,0.,12.0
1979-07-12 06:16:01.100 ,6,1,8.,12.0,0.,12.0,0.,12.0,0.,12.0
1979-07-12 06:16:13.100 ,6,1,8.,12.0,0.,12.0,0.,12.0,0.,12.0
1979-07-12 06:16:25.100 ,6,0,5.,12.0,0.,12.0,0.,12.0,0.,12.0
1979-07-12 06:16:37.100 ,6,0,14.,12.0,0.,12.0,0.,12.0,0.,12.0
1979-07-12 06:16:49.100 ,7,1,5.,12.0,0.,12.0,0.,12.0,0.,12.0
1979-07-12 06:17:01.100 ,7,1,0.,12.0,0.,12.0,0.,12.0,0.,12.0
1979-07-12 06:17:13.100 ,7,0,0.,12.0,0.,12.0,0.,12.0,0.,12.0
1979-07-12 06:17:25.100 ,7,0,0.,12.0,0.,12.0,0.,12.0,0.,12.0
1979-07-12 06:17:37.100 ,7,1,0.,12.0,0.,12.0,0.,12.0,0.,12.0
1979-07-12 06:17:49.100 ,7,1,0.,12.0,0.,12.0,0.,12.0,0.,12.0
1979-07-12 06:18:01.100 ,7,0,0.,12.0,0.,12.0,0.,12.0,0.,12.0
1979-07-12 06:18:13.100 ,7,0,0.,12.0,0.,12.0,0.,12.0,0.,12.0
1979-07-12 06:18:25.100 ,6,1,0.,12.0,0.,12.0,0.,12.0,0.,12.0
1979-07-12 06:18:37.100 ,6,1,2.,12.0,0.,12.0,0.,12.0,0.,12.0
1979-07-12 06:18:49.100 ,6,0,2.,12.0,0.,12.0,0.,12.0,1.,12.0
1979-07-12 06:19:01.100 ,6,0,2.,12.0,0.,12.0,0.,12.0,0.,12.0
1979-07-12 06:19:13.100 ,5,1,4.,12.0,0.,12.0,0.,12.0,0.,12.0
1979-07-12 06:19:25.100 ,5,1,9.,12.0,0.,12.0,0.,12.0,0.,12.0
1979-07-12 06:19:37.100 ,5,0,6.,12.0,0.,12.0,0.,12.0,0.,12.0
1979-07-12 06:19:49.100 ,5,0,6.,12.0,0.,12.0,0.,12.0,0.,12.0
1979-07-12 06:20:01.100 ,4,1,7.,12.0,0.,12.0,0.,12.0,0.,12.0
1979-07-12 06:20:13.100 ,4,1,11.,12.0,0.,12.0,0.,12.0,0.,12.0
1979-07-12 06:20:25.100 ,4,0,12.,12.0,0.,12.0,0.,12.0,1.,12.0
1979-07-12 06:20:37.100 ,4,0,13.,12.0,0.,12.0,0.,12.0,0.,12.0
1979-07-12 06:20:49.100 ,3,1,8.,12.0,0.,12.0,0.,12.0,0.,12.0
1979-07-12 06:21:01.100 ,3,1,8.,12.0,0.,12.0,0.,12.0,0.,12.0
1979-07-12 06:21:13.100 ,3,0,3.,12.0,0.,12.0,0.,12.0,0.,12.0
1979-07-12 06:21:25.100 ,3,0,7.,12.0,0.,12.0,0.,12.0,0.,12.0
1979-07-12 06:21:37.100 ,2,1,4.,12.0,0.,12.0,0.,12.0,0.,12.0
1979-07-12 06:21:49.100 ,2,1,5.,12.0,0.,12.0,0.,12.0,0.,12.0
1979-07-12 06:22:01.100 ,2,0,3.,12.0,0.,12.0,0.,12.0,0.,12.0
1979-07-12 06:22:13.100 ,2,0,5.,12.0,0.,12.0,0.,12.0,2.,12.0
1979-07-12 06:22:25.100 ,1,1,1.,12.0,0.,12.0,0.,12.0,1.,12.0
1979-07-12 06:22:37.100 ,1,1,3.,12.0,0.,12.0,0.,12.0,0.,12.0
1979-07-12 06:22:49.100 ,1,0,1.,12.0,0.,12.0,0.,12.0,0.,12.0
1979-07-12 06:23:01.100 ,1,0,3.,12.0,0.,12.0,0.,12.0,0.,12.0
1979-07-12 06:23:13.100 ,0,1,1.,12.0,0.,12.0,0.,12.0,0.,12.0
1979-07-12 06:23:25.100 ,0,1,6.,12.0,0.,12.0,0.,12.0,0.,12.0
1979-07-12 06:23:37.100 ,0,0,3.,12.0,0.,12.0,0.,12.0,0.,12.0
1979-07-12 06:23:49.100 ,0,0,4.,12.0,0.,12.0,0.,12.0,0.,12.0
1979-07-12 06:24:01.100 ,0,1,2.,12.0,0.,12.0,0.,12.0,0.,12.0
1979-07-12 06:24:13.100 ,0,1,3.,12.0,0.,12.0,0.,12.0,2.,12.0
1979-07-12 06:24:25.100 ,0,0,3.,12.0,0.,12.0,0.,12.0,0.,12.0
1979-07-12 06:24:37.100 ,0,0,4.,12.0,0.,12.0,0.,12.0,0.,12.0
1979-07-12 06:24:49.100 ,1,1,4.,12.0,0.,12.0,0.,12.0,0.,12.0
1979-07-12 06:25:01.100 ,1,1,4.,12.0,0.,12.0,0.,12.0,0.,12.0
1979-07-12 06:25:13.100 ,1,0,4.,12.0,0.,12.0,0.,12.0,0.,12.0
1979-07-12 06:25:25.100 ,1,0,1.,12.0,0.,12.0,0.,12.0,0.,12.0
1979-07-12 06:25:37.100 ,2,1,5.,12.0,0.,12.0,0.,12.0,0.,12.0
1979-07-12 06:25:49.100 ,2,1,7.,12.0,0.,12.0,0.,12.0,0.,12.0
1979-07-12 06:26:01.100 ,2,0,5.,12.0,0.,12.0,0.,12.0,0.,12.0
1979-07-12 06:26:13.100 ,2,0,5.,12.0,0.,12.0,0.,12.0,0.,12.0
1979-07-12 06:26:25.100 ,3,1,10.,12.0,0.,12.0,0.,12.0,0.,12.0
1979-07-12 06:26:37.100 ,3,1,4.,12.0,0.,12.0,0.,12.0,0.,12.0
1979-07-12 06:26:49.100 ,3,0,3.,12.0,0.,12.0,0.,12.0,0.,12.0
1979-07-12 06:27:01.100 ,3,0,3.,12.0,0.,12.0,0.,12.0,0.,12.0
1979-07-12 06:27:13.100 ,4,1,4.,12.0,0.,12.0,0.,12.0,1.,12.0
1979-07-12 06:27:25.100 ,4,1,7.,12.0,0.,12.0,0.,12.0,0.,12.0
1979-07-12 06:27:37.100 ,4,0,8.,12.0,0.,12.0,0.,12.0,0.,12.0
1979-07-12 06:27:49.100 ,4,0,7.,12.0,0.,12.0,0.,12.0,0.,12.0
1979-07-12 06:28:01.100 ,5,1,7.,12.0,0.,12.0,0.,12.0,1.,12.0
1979-07-12 06:28:13.100 ,5,1,10.,12.0,0.,12.0,0.,12.0,0.,12.0
1979-07-12 06:28:25.100 ,5,0,5.,12.0,0.,12.0,0.,12.0,0.,12.0
1979-07-12 06:28:37.100 ,5,0,15.,12.0,0.,12.0,0.,12.0,0.,12.0
1979-07-12 06:28:49.100 ,6,1,14.,12.0,0.,12.0,0.,12.0,1.,12.0
1979-07-12 06:29:01.100 ,6,1,9.,12.0,0.,12.0,0.,12.0,1.,12.0
1979-07-12 06:29:13.100 ,6,0,9.,12.0,0.,12.0,0.,12.0,0.,12.0
1979-07-12 06:29:25.100 ,6,0,6.,12.0,0.,12.0,0.,12.0,0.,12.0
1979-07-12 06:29:37.100 ,7,1,9.,12.0,0.,12.0,0.,12.0,2.,12.0
1979-07-12 06:29:49.100 ,7,1,0.,12.0,0.,12.0,0.,12.0,0.,12.0
1979-07-12 06:30:01.100 ,7,0,0.,12.0,0.,12.0,0.,12.0,0.,12.0
1979-07-12 06:30:13.100 ,7,0,0.,12.0,0.,12.0,0.,12.0,1.,12.0
1979-07-12 06:30:25.100 ,7,1,0.,12.0,0.,12.0,0.,12.0,0.,12.0
1979-07-12 06:30:37.100 ,7,1,0.,12.0,0.,12.0,0.,12.0,0.,12.0
1979-07-12 06:30:49.100 ,7,0,0.,12.0,0.,12.0,0.,12.0,0.,12.0
1979-07-12 06:31:01.100 ,7,0,0.,12.0,0.,12.0,0.,12.0,0.,12.0
1979-07-12 06:31:13.100 ,6,1,0.,12.0,0.,12.0,0.,12.0,0.,12.0
1979-07-12 06:31:25.100 ,6,1,5.,12.0,0.,12.0,0.,12.0,0.,12.0
1979-07-12 06:31:37.100 ,6,0,13.,12.0,0.,12.0,0.,12.0,0.,12.0
1979-07-12 06:31:49.100 ,6,0,10.,12.0,0.,12.0,0.,12.0,0.,12.0
1979-07-12 06:32:01.100 ,5,1,11.,12.0,0.,12.0,0.,12.0,0.,12.0
1979-07-12 06:32:13.100 ,5,1,13.,12.0,0.,12.0,0.,12.0,0.,12.0
1979-07-12 06:32:25.100 ,5,0,13.,12.0,0.,12.0,0.,12.0,0.,12.0
1979-07-12 06:32:37.100 ,5,0,13.,12.0,0.,12.0,0.,12.0,0.,12.0
1979-07-12 06:32:49.100 ,4,1,12.,12.0,0.,12.0,0.,12.0,0.,12.0
1979-07-12 06:33:01.100 ,4,1,8.,12.0,0.,12.0,0.,12.0,1.,12.0
1979-07-12 06:33:13.100 ,4,0,5.,12.0,0.,12.0,0.,12.0,0.,12.0
1979-07-12 06:33:25.100 ,4,0,6.,12.0,0.,12.0,0.,12.0,0.,12.0
1979-07-12 06:33:37.100 ,3,1,8.,12.0,0.,12.0,0.,12.0,0.,12.0
1979-07-12 06:33:49.100 ,3,1,11.,12.0,0.,12.0,0.,12.0,0.,12.0
1979-07-12 06:34:01.100 ,3,0,5.,12.0,0.,12.0,0.,12.0,0.,12.0
1979-07-12 06:34:13.100 ,3,0,12.,12.0,0.,12.0,0.,12.0,0.,12.0
1979-07-12 06:34:25.100 ,2,1,2.,12.0,1.,12.0,0.,12.0,1.,12.0
1979-07-12 06:34:37.100 ,2,1,8.,12.0,0.,12.0,0.,12.0,0.,12.0
1979-07-12 06:34:49.100 ,2,0,3.,12.0,0.,12.0,0.,12.0,0.,12.0
1979-07-12 06:35:01.100 ,2,0,5.,12.0,0.,12.0,0.,12.0,0.,12.0
1979-07-12 06:35:13.100 ,1,1,3.,12.0,0.,12.0,0.,12.0,0.,12.0
1979-07-12 06:35:25.100 ,1,1,2.,12.0,0.,12.0,0.,12.0,0.,12.0
1979-07-12 06:35:37.100 ,1,0,4.,12.0,0.,12.0,0.,12.0,0.,12.0
1979-07-12 06:35:49.100 ,1,0,7.,12.0,0.,12.0,0.,12.0,0.,12.0
1979-07-12 06:36:01.100 ,0,1,6.,12.0,0.,12.0,0.,12.0,0.,12.0
1979-07-12 06:36:13.100 ,0,1,6.,12.0,0.,12.0,0.,12.0,0.,12.0
1979-07-12 06:36:25.100 ,0,0,6.,12.0,0.,12.0,0.,12.0,0.,12.0
1979-07-12 06:36:37.100 ,0,0,1.,12.0,0.,12.0,0.,12.0,0.,12.0
1979-07-12 06:36:49.100 ,0,1,4.,12.0,0.,12.0,0.,12.0,0.,12.0
1979-07-12 06:37:01.100 ,0,1,5.,12.0,0.,12.0,0.,12.0,0.,12.0
1979-07-12 06:37:13.100 ,0,0,4.,12.0,0.,12.0,0.,12.0,1.,12.0
1979-07-12 06:37:25.100 ,0,0,7.,12.0,0.,12.0,0.,12.0,1.,12.0
1979-07-12 06:37:37.100 ,1,1,14.,12.0,0.,12.0,0.,12.0,0.,12.0
1979-07-12 06:37:49.100 ,1,1,11.,12.0,0.,12.0,0.,12.0,0.,12.0
1979-07-12 06:38:01.100 ,1,0,7.,12.0,0.,12.0,0.,12.0,0.,12.0
1979-07-12 06:38:13.100 ,1,0,7.,12.0,0.,12.0,0.,12.0,0.,12.0
1979-07-12 06:38:25.100 ,2,1,8.,12.0,0.,12.0,0.,12.0,2.,12.0
1979-07-12 06:38:37.100 ,2,1,13.,12.0,0.,12.0,0.,12.0,0.,12.0
1979-07-12 06:38:49.100 ,2,0,17.,12.0,0.,12.0,0.,12.0,0.,12.0
1979-07-12 06:39:01.100 ,2,0,18.,12.0,0.,12.0,0.,12.0,0.,12.0
1979-07-12 06:39:13.100 ,3,1,14.,12.0,0.,12.0,0.,12.0,0.,12.0
1979-07-12 06:39:25.100 ,3,1,20.,12.0,0.,12.0,0.,12.0,1.,12.0
1979-07-12 06:39:37.100 ,3,0,23.,12.0,0.,12.0,0.,12.0,0.,12.0
1979-07-12 06:39:49.100 ,3,0,13.,12.0,0.,12.0,0.,12.0,0.,12.0
1979-07-12 06:40:01.100 ,4,1,12.,12.0,0.,12.0,0.,12.0,0.,12.0
1979-07-12 06:40:13.100 ,4,1,20.,12.0,0.,12.0,0.,12.0,0.,12.0
1979-07-12 06:40:25.100 ,4,0,30.,12.0,0.,12.0,0.,12.0,1.,12.0
1979-07-12 06:40:37.100 ,4,0,17.,12.0,0.,12.0,0.,12.0,0.,12.0
1979-07-12 06:40:49.100 ,5,1,31.,12.0,0.,12.0,0.,12.0,0.,12.0
1979-07-12 06:41:01.100 ,5,1,24.,12.0,0.,12.0,0.,12.0,0.,12.0
1979-07-12 06:41:13.100 ,5,0,33.,12.0,0.,12.0,0.,12.0,0.,12.0
1979-07-12 06:41:25.100 ,5,0,38.,12.0,0.,12.0,0.,12.0,0.,12.0
1979-07-12 06:41:37.100 ,6,1,29.,12.0,0.,12.0,0.,12.0,0.,12.0
1979-07-12 06:41:49.100 ,6,1,23.,12.0,0.,12.0,0.,12.0,0.,12.0
1979-07-12 06:42:01.100 ,6,0,25.,12.0,0.,12.0,0.,12.0,0.,12.0
1979-07-12 06:42:13.100 ,6,0,18.,12.0,0.,12.0,0.,12.0,0.,12.0
1979-07-12 06:42:25.100 ,7,0,14.,12.0,0.,12.0,0.,12.0,0.,12.0
1979-07-12 06:42:37.100 ,7,0,5.,12.0,0.,12.0,0.,12.0,0.,12.0
1979-07-12 06:42:49.100 ,7,0,0.,12.0,0.,12.0,0.,12.0,0.,12.0
1979-07-12 06:43:01.100 ,7,0,0.,12.0,0.,12.0,0.,12.0,1.,12.0
1979-07-12 06:43:13.100 ,4,1,4.,12.0,0.,12.0,0.,12.0,0.,12.0
1979-07-12 06:43:25.100 ,4,1,29.,12.0,0.,12.0,0.,12.0,0.,12.0
1979-07-12 06:43:37.100 ,0,1,19.,12.0,0.,12.0,0.,12.0,0.,12.0
1979-07-12 06:43:49.100 ,0,1,11.,12.0,0.,12.0,0.,12.0,0.,12.0
1979-07-12 06:44:01.100 ,3,1,10.,12.0,0.,12.0,0.,12.0,0.,12.0
1979-07-12 06:44:13.100 ,3,1,8.,12.0,0.,12.0,0.,12.0,0.,12.0
1979-07-12 06:44:25.100 ,7,1,29.,12.0,0.,12.0,0.,12.0,0.,12.0
1979-07-12 06:44:37.100 ,7,1,32.,12.0,0.,12.0,0.,12.0,0.,12.0
1979-07-12 06:44:49.100 ,4,1,6.,12.0,0.,12.0,0.,12.0,0.,12.0
1979-07-12 06:45:01.100 ,4,1,42.,12.0,0.,12.0,0.,12.0,1.,12.0
1979-07-12 06:45:13.100 ,0,1,17.,12.0,0.,12.0,0.,12.0,1.,12.0
1979-07-12 06:45:25.100 ,0,1,10.,12.0,0.,12.0,0.,12.0,0.,12.0
1979-07-12 06:45:37.100 ,3,1,18.,12.0,0.,12.0,0.,12.0,0.,12.0
1979-07-12 06:45:49.100 ,3,1,14.,12.0,0.,12.0,0.,12.0,1.,12.0
1979-07-12 06:46:01.100 ,7,1,27.,12.0,0.,12.0,0.,12.0,0.,12.0
1979-07-12 06:46:13.100 ,7,1,25.,12.0,1.,12.0,0.,12.0,0.,12.0
1979-07-12 06:46:25.100 ,4,1,4.,12.0,0.,12.0,0.,12.0,0.,12.0
1979-07-12 06:46:37.100 ,4,1,31.,12.0,0.,12.0,0.,12.0,1.,12.0
1979-07-12 06:46:49.100 ,0,1,17.,12.0,0.,12.0,0.,12.0,1.,12.0
1979-07-12 06:47:01.100 ,0,1,15.,12.0,0.,12.0,0.,12.0,0.,12.0
1979-07-12 06:47:13.100 ,3,1,22.,12.0,0.,12.0,0.,12.0,0.,12.0
1979-07-12 06:47:25.100 ,3,1,16.,12.0,0.,12.0,0.,12.0,2.,12.0
1979-07-12 06:47:37.100 ,7,1,25.,12.0,0.,12.0,0.,12.0,0.,12.0
1979-07-12 06:47:49.100 ,7,1,34.,12.0,0.,12.0,0.,12.0,0.,12.0
1979-07-12 06:48:01.100 ,4,1,9.,12.0,0.,12.0,0.,12.0,0.,12.0
1979-07-12 06:48:13.100 ,4,1,35.,12.0,0.,12.0,0.,12.0,0.,12.0
1979-07-12 06:48:25.100 ,0,1,12.,12.0,0.,12.0,0.,12.0,0.,12.0
1979-07-12 06:48:37.100 ,0,1,23.,12.0,0.,12.0,0.,12.0,1.,12.0
1979-07-12 06:48:49.100 ,3,1,24.,12.0,0.,12.0,0.,12.0,0.,12.0
1979-07-12 06:49:01.100 ,3,1,25.,12.0,0.,12.0,0.,12.0,1.,12.0
1979-07-12 06:49:13.100 ,7,1,26.,12.0,0.,12.0,0.,12.0,0.,12.0
1979-07-12 06:49:25.100 ,7,1,32.,12.0,0.,12.0,0.,12.0,1.,12.0
1979-07-12 06:49:37.100 ,4,1,1.,12.0,0.,12.0,0.,12.0,1.,12.0
1979-07-12 06:49:49.100 ,4,1,38.,12.0,0.,12.0,0.,12.0,0.,12.0
1979-07-12 06:50:01.100 ,0,1,16.,12.0,0.,12.0,0.,12.0,0.,12.0
1979-07-12 06:50:13.100 ,0,1,14.,12.0,0.,12.0,0.,12.0,0.,12.0
1979-07-12 06:50:25.100 ,3,1,20.,12.0,0.,12.0,0.,12.0,0.,12.0
1979-07-12 06:50:37.100 ,3,1,12.,12.0,0.,12.0,0.,12.0,0.,12.0
1979-07-12 06:50:49.100 ,7,1,24.,12.0,0.,12.0,0.,12.0,0.,12.0
1979-07-12 06:51:01.100 ,7,1,38.,12.0,0.,12.0,0.,12.0,1.,12.0
1979-07-12 06:51:13.100 ,4,1,6.,12.0,0.,12.0,0.,12.0,1.,12.0
1979-07-12 06:51:25.100 ,4,1,37.,12.0,0.,12.0,0.,12.0,0.,12.0
1979-07-12 06:51:37.100 ,0,1,28.,12.0,0.,12.0,0.,12.0,1.,12.0
1979-07-12 06:51:49.100 ,0,1,12.,12.0,0.,12.0,0.,12.0,0.,12.0
1979-07-12 06:52:01.100 ,3,1,6.,12.0,0.,12.0,0.,12.0,1.,12.0
1979-07-12 06:52:13.100 ,3,1,11.,12.0,0.,12.0,0.,12.0,0.,12.0
1979-07-12 06:52:25.100 ,7,1,27.,12.0,0.,12.0,0.,12.0,0.,12.0
1979-07-12 06:52:37.100 ,7,1,30.,12.0,0.,12.0,0.,12.0,1.,12.0
1979-07-12 06:52:49.100 ,4,1,7.,12.0,0.,12.0,0.,12.0,1.,12.0
1979-07-12 06:53:01.100 ,4,1,33.,12.0,0.,12.0,0.,12.0,0.,12.0
1979-07-12 06:53:13.100 ,0,0,29.,12.0,0.,12.0,0.,12.0,0.,12.0
1979-07-12 06:53:25.100 ,0,0,,0,,0,,0,,0
1979-07-12 06:54:02.900 ,0,0,27.,12.0,0.,12.0,0.,12.0,0.,12.0
1979-07-12 06:54:14.900 ,0,0,35.,12.0,0.,12.0,0.,12.0,0.,12.0
1979-07-12 06:54:25.100 ,5,1,6.,12.0,0.,12.0,0.,12.0,0.,12.0
1979-07-12 06:54:37.100 ,5,1,40.,12.0,0.,12.0,0.,12.0,0.,12.0
1979-07-12 06:54:49.100 ,5,0,50.,12.0,0.,12.0,0.,12.0,0.,12.0
1979-07-12 06:55:01.100 ,5,0,49.,12.0,0.,12.0,0.,12.0,0.,12.0
1979-07-12 06:55:13.100 ,4,1,51.,12.0,1.,12.0,0.,12.0,2.,12.0
1979-07-12 06:55:25.100 ,4,1,35.,12.0,0.,12.0,0.,12.0,0.,12.0
1979-07-12 06:55:37.100 ,4,0,45.,12.0,0.,12.0,0.,12.0,0.,12.0
1979-07-12 06:55:49.100 ,4,0,40.,12.0,0.,12.0,0.,12.0,0.,12.0
1979-07-12 06:56:01.100 ,3,1,46.,12.0,0.,12.0,0.,12.0,0.,12.0
1979-07-12 06:56:13.100 ,3,1,26.,12.0,0.,12.0,0.,12.0,0.,12.0
1979-07-12 06:56:25.100 ,3,0,29.,12.0,0.,12.0,0.,12.0,2.,12.0
1979-07-12 06:56:37.100 ,3,0,24.,12.0,0.,12.0,0.,12.0,0.,12.0
1979-07-12 06:56:49.100 ,2,1,26.,12.0,0.,12.0,0.,12.0,2.,12.0
1979-07-12 06:57:01.100 ,2,1,23.,12.0,0.,12.0,0.,12.0,0.,12.0
1979-07-12 06:57:13.100 ,2,0,28.,12.0,0.,12.0,0.,12.0,0.,12.0
1979-07-12 06:57:25.100 ,2,0,12.,12.0,0.,12.0,0.,12.0,0.,12.0
1979-07-12 06:57:37.100 ,1,1,20.,12.0,0.,12.0,0.,12.0,0.,12.0
1979-07-12 06:57:49.100 ,1,1,17.,12.0,0.,12.0,0.,12.0,0.,12.0
1979-07-12 06:58:01.100 ,1,0,14.,12.0,0.,12.0,0.,12.0,1.,12.0
1979-07-12 06:58:13.100 ,1,0,21.,12.0,0.,12.0,0.,12.0,0.,12.0
1979-07-12 06:58:25.100 ,0,1,19.,12.0,0.,12.0,0.,12.0,0.,12.0
1979-07-12 06:58:37.100 ,0,1,18.,12.0,0.,12.0,0.,12.0,0.,12.0
1979-07-12 06:58:49.100 ,0,0,17.,12.0,0.,12.0,0.,12.0,0.,12.0
1979-07-12 06:59:01.100 ,0,0,16.,12.0,0.,12.0,0.,12.0,0.,12.0
1979-07-12 06:59:13.100 ,0,1,25.,12.0,0.,12.0,0.,12.0,0.,12.0
1979-07-12 06:59:25.100 ,0,1,13.,12.0,0.,12.0,0.,12.0,0.,12.0
1979-07-12 06:59:37.100 ,0,0,18.,12.0,0.,12.0,0.,12.0,0.,12.0
1979-07-12 06:59:49.100 ,0,0,15.,12.0,0.,12.0,0.,12.0,0.,12.0
1979-07-12 07:00:01.100 ,1,1,15.,12.0,0.,12.0,0.,12.0,0.,12.0
1979-07-12 07:00:13.100 ,1,1,26.,12.0,0.,12.0,0.,12.0,0.,12.0
1979-07-12 07:00:25.100 ,1,0,28.,12.0,0.,12.0,0.,12.0,0.,12.0
1979-07-12 07:00:37.100 ,1,0,25.,12.0,0.,12.0,0.,12.0,0.,12.0
1979-07-12 07:00:49.100 ,2,1,29.,12.0,0.,12.0,0.,12.0,0.,12.0
1979-07-12 07:01:01.100 ,2,1,27.,12.0,0.,12.0,0.,12.0,1.,12.0
1979-07-12 07:01:13.100 ,2,0,24.,12.0,0.,12.0,0.,12.0,0.,12.0
1979-07-12 07:01:25.100 ,2,0,19.,12.0,0.,12.0,0.,12.0,1.,12.0
1979-07-12 07:01:37.100 ,3,1,25.,12.0,0.,12.0,0.,12.0,1.,12.0
1979-07-12 07:01:49.100 ,3,1,32.,12.0,0.,12.0,0.,12.0,1.,12.0
1979-07-12 07:02:01.100 ,3,0,25.,12.0,0.,12.0,0.,12.0,0.,12.0
1979-07-12 07:02:13.100 ,3,0,22.,12.0,0.,12.0,0.,12.0,0.,12.0
1979-07-12 07:02:25.100 ,4,1,24.,12.0,0.,12.0,0.,12.0,0.,12.0
1979-07-12 07:02:37.100 ,4,1,33.,12.0,0.,12.0,0.,12.0,0.,12.0
1979-07-12 07:02:49.100 ,4,0,40.,12.0,0.,12.0,0.,12.0,0.,12.0
1979-07-12 07:03:01.100 ,4,0,40.,12.0,0.,12.0,0.,12.0,0.,12.0
1979-07-12 07:03:13.100 ,5,1,41.,12.0,0.,12.0,0.,12.0,0.,12.0
1979-07-12 07:03:25.100 ,5,1,31.,12.0,0.,12.0,0.,12.0,1.,12.0
1979-07-12 07:03:37.100 ,5,0,37.,12.0,0.,12.0,0.,12.0,0.,12.0
1979-07-12 07:03:49.100 ,5,0,47.,12.0,0.,12.0,0.,12.0,0.,12.0
1979-07-12 07:04:01.100 ,6,1,42.,12.0,0.,12.0,0.,12.0,0.,12.0
1979-07-12 07:04:13.100 ,6,1,37.,12.0,0.,12.0,0.,12.0,0.,12.0
1979-07-12 07:04:25.100 ,6,0,35.,12.0,0.,12.0,0.,12.0,0.,12.0
1979-07-12 07:04:37.100 ,6,0,37.,12.0,0.,12.0,0.,12.0,0.,12.0
1979-07-12 07:04:49.100 ,7,1,44.,12.0,0.,12.0,0.,12.0,0.,12.0
1979-07-12 07:05:01.100 ,7,1,13.,12.0,0.,12.0,0.,12.0,1.,12.0
1979-07-12 07:05:13.100 ,7,0,0.,12.0,0.,12.0,0.,12.0,0.,12.0
1979-07-12 07:05:25.100 ,7,0,0.,12.0,0.,12.0,0.,12.0,0.,12.0
1979-07-12 07:05:37.100 ,7,1,0.,12.0,0.,12.0,0.,12.0,0.,12.0
1979-07-12 07:05:49.100 ,7,1,0.,12.0,0.,12.0,0.,12.0,0.,12.0
1979-07-12 07:06:01.100 ,7,0,0.,12.0,0.,12.0,0.,12.0,0.,12.0
1979-07-12 07:06:13.100 ,7,0,0.,12.0,0.,12.0,0.,12.0,1.,12.0
1979-07-12 07:06:25.100 ,6,1,0.,12.0,0.,12.0,0.,12.0,0.,12.0
1979-07-12 07:06:37.100 ,6,1,27.,12.0,0.,12.0,0.,12.0,0.,12.0
1979-07-12 07:06:49.100 ,6,0,35.,12.0,0.,12.0,0.,12.0,0.,12.0
1979-07-12 07:07:01.100 ,6,0,17.,12.0,0.,12.0,0.,12.0,1.,12.0
1979-07-12 07:07:13.100 ,5,1,30.,12.0,0.,12.0,0.,12.0,0.,12.0
1979-07-12 07:07:25.100 ,5,1,39.,12.0,0.,12.0,0.,12.0,1.,12.0
1979-07-12 07:07:37.100 ,5,0,33.,12.0,0.,12.0,0.,12.0,0.,12.0
1979-07-12 07:07:49.100 ,5,0,30.,12.0,0.,12.0,0.,12.0,1.,12.0
1979-07-12 07:08:01.100 ,4,1,28.,12.0,0.,12.0,0.,12.0,2.,12.0
1979-07-12 07:08:13.100 ,4,1,31.,12.0,0.,12.0,0.,12.0,0.,12.0
1979-07-12 07:08:25.100 ,4,0,36.,12.0,0.,12.0,0.,12.0,0.,12.0
1979-07-12 07:08:37.090 ,4,0,42.,12.0,0.,12.0,0.,12.0,0.,12.0
1979-07-12 07:08:49.100 ,3,1,24.,12.0,0.,12.0,0.,12.0,1.,12.0
1979-07-12 07:09:01.100 ,3,1,31.,12.0,0.,12.0,0.,12.0,1.,12.0
1979-07-12 07:09:13.100 ,3,0,29.,12.0,0.,12.0,0.,12.0,0.,12.0
1979-07-12 07:09:25.100 ,3,0,26.,12.0,0.,12.0,0.,12.0,0.,12.0
1979-07-12 07:09:37.100 ,2,1,37.,12.0,0.,12.0,0.,12.0,0.,12.0
1979-07-12 07:09:49.100 ,2,1,22.,12.0,0.,12.0,0.,12.0,0.,12.0
1979-07-12 07:10:01.100 ,2,0,18.,12.0,0.,12.0,0.,12.0,0.,12.0
1979-07-12 07:10:13.100 ,2,0,21.,12.0,0.,12.0,0.,12.0,0.,12.0
1979-07-12 07:10:25.100 ,1,1,19.,12.0,0.,12.0,0.,12.0,0.,12.0
1979-07-12 07:10:37.100 ,1,1,18.,12.0,0.,12.0,0.,12.0,0.,12.0
1979-07-12 07:10:49.100 ,1,0,15.,12.0,0.,12.0,0.,12.0,0.,12.0
1979-07-12 07:11:01.100 ,1,0,12.,12.0,0.,12.0,0.,12.0,0.,12.0
1979-07-12 07:11:13.100 ,0,1,10.,12.0,0.,12.0,0.,12.0,1.,12.0
1979-07-12 07:11:25.100 ,0,1,19.,12.0,0.,12.0,0.,12.0,0.,12.0
1979-07-12 07:11:37.100 ,0,0,11.,12.0,0.,12.0,0.,12.0,0.,12.0
1979-07-12 07:11:49.100 ,0,0,10.,12.0,0.,12.0,0.,12.0,0.,12.0
1979-07-12 07:12:01.100 ,0,1,15.,12.0,0.,12.0,0.,12.0,0.,12.0
1979-07-12 07:12:13.100 ,0,1,7.,12.0,0.,12.0,0.,12.0,0.,12.0
1979-07-12 07:12:25.100 ,0,0,7.,12.0,0.,12.0,0.,12.0,0.,12.0
1979-07-12 07:12:37.100 ,0,0,7.,12.0,0.,12.0,0.,12.0,0.,12.0
1979-07-12 07:12:49.100 ,1,1,14.,12.0,0.,12.0,0.,12.0,0.,12.0
1979-07-12 07:13:01.100 ,1,1,12.,12.0,0.,12.0,0.,12.0,0.,12.0
1979-07-12 07:13:13.100 ,1,0,11.,12.0,0.,12.0,0.,12.0,0.,12.0
1979-07-12 07:13:25.100 ,1,0,10.,12.0,0.,12.0,0.,12.0,0.,12.0
1979-07-12 07:13:37.100 ,2,1,15.,12.0,0.,12.0,0.,12.0,0.,12.0
1979-07-12 07:13:49.100 ,2,1,19.,12.0,0.,12.0,0.,12.0,0.,12.0
1979-07-12 07:14:01.100 ,2,0,18.,12.0,0.,12.0,0.,12.0,0.,12.0
1979-07-12 07:14:13.100 ,2,0,4.,12.0,0.,12.0,0.,12.0,0.,12.0
1979-07-12 07:14:25.100 ,3,1,15.,12.0,0.,12.0,0.,12.0,0.,12.0
1979-07-12 07:14:37.100 ,3,1,18.,12.0,0.,12.0,0.,12.0,0.,12.0
1979-07-12 07:14:49.100 ,3,0,12.,12.0,0.,12.0,0.,12.0,0.,12.0
1979-07-12 07:15:01.100 ,3,0,11.,12.0,0.,12.0,0.,12.0,0.,12.0
1979-07-12 07:15:13.100 ,4,1,15.,12.0,0.,12.0,0.,12.0,0.,12.0
1979-07-12 07:15:25.100 ,4,1,17.,12.0,0.,12.0,0.,12.0,0.,12.0
1979-07-12 07:15:37.100 ,4,0,20.,12.0,0.,12.0,0.,12.0,0.,12.0
1979-07-12 07:15:49.100 ,4,0,21.,12.0,0.,12.0,0.,12.0,0.,12.0
1979-07-12 07:16:01.100 ,5,1,25.,12.0,0.,12.0,0.,12.0,1.,12.0
1979-07-12 07:16:13.100 ,5,1,31.,12.0,0.,12.0,0.,12.0,0.,12.0
1979-07-12 07:16:25.100 ,5,0,13.,12.0,0.,12.0,0.,12.0,0.,12.0
1979-07-12 07:16:37.100 ,5,0,31.,12.0,0.,12.0,0.,12.0,0.,12.0
1979-07-12 07:16:49.100 ,6,1,12.,12.0,0.,12.0,0.,12.0,0.,12.0
1979-07-12 07:17:01.100 ,6,1,21.,12.0,0.,12.0,0.,12.0,0.,12.0
1979-07-12 07:17:13.090 ,6,0,10.,12.0,0.,12.0,0.,12.0,0.,12.0